User: anonymous   Login
Location: Unspecified
(0.0000°N, 0.0000°E)
Time: 02:59:08
(UTC+00:00)
Language:

ONEWEB-0174 - Orbit

View from above orbital plane
View from above orbital plane
View from above satellite
View from above satellite

Ground track
Ground track

The orbit is defined by the following mean orbital elements,

1 48072U          26145.50695616 +.00000000 +00000-0 +11012-3 0 00008
2 48072  87.8945 324.7374 0001846  95.5271 264.6069 13.13468620    09
Epoch (UTC): 25 May 2026 12:10:01
Eccentricity: 0.0001846
inclination: 87.8945°
perigee height: 1208 km
apogee height: 1211 km
right ascension of ascending node: 324.7374°
argument of perigee: 95.5271°
revolutions per day: 13.13468620
mean anomaly at epoch: 264.6069°

The dashed part of the orbit path shows where the satellite is in the earth's shadow,  

DLR